Previsão horária em Jyväskylä

Hoje, 14 Junho, Segunda-feira

Tempo Temperatura Precipitação Vento Pressão Humidade
00:00 +9°C° 0 mm 2 m/s 749 mmHg 74%
01:00 +8°C° 0 mm 2 m/s 749 mmHg 76%
02:00 +8°C° 0 mm 2 m/s 749 mmHg 78%
03:00 +8°C° 0 mm 2 m/s 750 mmHg 75%
04:00 +9°C° 0 mm 2 m/s 750 mmHg 72%
05:00 +10°C° 0 mm 2 m/s 750 mmHg 69%
06:00 +11°C° 0 mm 3 m/s 750 mmHg 62%
07:00 +13°C° 0 mm 3 m/s 750 mmHg 55%
08:00 +16°C° 0 mm 3 m/s 750 mmHg 48%
09:00 +17°C° 0 mm 4 m/s 749 mmHg 45%
10:00 +18°C° 0 mm 4 m/s 749 mmHg 43%
11:00 +20°C° 0 mm 5 m/s 749 mmHg 41%
12:00 +20°C° 0 mm 5 m/s 748 mmHg 42%
13:00 +21°C° 0 mm 5 m/s 748 mmHg 43%
14:00 +21°C° 0 mm 6 m/s 748 mmHg 44%
15:00 +21°C° 0 mm 5 m/s 747 mmHg 45%
16:00 +22°C° 0 mm 5 m/s 747 mmHg 46%
17:00 +22°C° 0 mm 5 m/s 746 mmHg 48%
18:00 +20°C° 0 mm 5 m/s 746 mmHg 53%
19:00 +19°C° 0 mm 5 m/s 745 mmHg 59%
20:00 +17°C° 0 mm 5 m/s 745 mmHg 64%
21:00 +16°C° 0 mm 5 m/s 744 mmHg 66%
22:00 +15°C° 0 mm 6 m/s 743 mmHg 67%
23:00 +15°C° 0 mm 6 m/s 743 mmHg 68%

Amanhã, 15 Junho, Terça-feira

Tempo Temperatura Precipitação Vento Pressão Humidade
00:00 +14°C° 0 mm 6 m/s 742 mmHg 69%
01:00 +14°C° 0 mm 6 m/s 741 mmHg 71%
02:00 +13°C° 0 mm 6 m/s 740 mmHg 72%
03:00 +12°C° 0.6 mm 7 m/s 739 mmHg 78%
04:00 +12°C° 0.6 mm 7 m/s 738 mmHg 85%
05:00 +11°C° 0.6 mm 7 m/s 737 mmHg 91%
06:00 +11°C° 0.1 mm 8 m/s 738 mmHg 89%
07:00 +10°C° 0.1 mm 8 m/s 738 mmHg 87%
08:00 +9°C° 0.1 mm 8 m/s 739 mmHg 85%
09:00 +9°C° 0.1 mm 7 m/s 740 mmHg 83%
10:00 +10°C° 0.1 mm 7 m/s 741 mmHg 81%
11:00 +10°C° 0.1 mm 6 m/s 742 mmHg 79%
12:00 +11°C° 0.1 mm 6 m/s 743 mmHg 72%
13:00 +13°C° 0.1 mm 6 m/s 743 mmHg 65%
14:00 +14°C° 0.1 mm 6 m/s 744 mmHg 58%
15:00 +15°C° 0 mm 6 m/s 744 mmHg 53%
16:00 +16°C° 0 mm 5 m/s 744 mmHg 48%
17:00 +17°C° 0 mm 5 m/s 744 mmHg 43%
18:00 +16°C° 0 mm 5 m/s 744 mmHg 47%
19:00 +15°C° 0 mm 5 m/s 745 mmHg 51%
20:00 +14°C° 0 mm 5 m/s 745 mmHg 55%
21:00 +13°C° 0 mm 5 m/s 746 mmHg 60%
22:00 +12°C° 0 mm 4 m/s 746 mmHg 64%
23:00 +11°C° 0 mm 4 m/s 747 mmHg 68%

Depois de amanhã, 16 Junho, Quarta-feira

Tempo Temperatura Precipitação Vento Pressão Humidade
00:00 +10°C° 0 mm 4 m/s 747 mmHg 71%
01:00 +10°C° 0 mm 4 m/s 748 mmHg 74%
02:00 +8°C° 0 mm 4 m/s 748 mmHg 77%
03:00 +8°C° 0 mm 4 m/s 748 mmHg 77%
04:00 +9°C° 0 mm 3 m/s 749 mmHg 76%
05:00 +9°C° 0 mm 3 m/s 749 mmHg 75%
06:00 +10°C° 0 mm 4 m/s 750 mmHg 68%
07:00 +10°C° 0 mm 4 m/s 750 mmHg 60%
08:00 +11°C° 0 mm 4 m/s 750 mmHg 53%
09:00 +12°C° 0 mm 4 m/s 751 mmHg 48%
10:00 +13°C° 0 mm 4 m/s 751 mmHg 43%
11:00 +14°C° 0 mm 4 m/s 751 mmHg 38%
12:00 +15°C° 0 mm 4 m/s 751 mmHg 38%
13:00 +15°C° 0 mm 4 m/s 752 mmHg 37%
14:00 +15°C° 0 mm 4 m/s 752 mmHg 37%
15:00 +17°C° 0 mm 4 m/s 752 mmHg 37%
16:00 +17°C° 0 mm 4 m/s 752 mmHg 37%
17:00 +18°C° 0 mm 4 m/s 752 mmHg 37%
18:00 +17°C° 0 mm 4 m/s 752 mmHg 42%
19:00 +16°C° 0 mm 3 m/s 752 mmHg 47%
20:00 +16°C° 0 mm 2 m/s 752 mmHg 52%
21:00 +14°C° 0 mm 2 m/s 753 mmHg 59%
22:00 +12°C° 0 mm 1 m/s 753 mmHg 66%
23:00 +10°C° 0 mm 1 m/s 753 mmHg 72%

17 Junho, Quinta-feira

Tempo Temperatura Precipitação Vento Pressão Humidade
00:00 +9°C° 0 mm 1 m/s 754 mmHg 74%
01:00 +8°C° 0 mm 1 m/s 754 mmHg 75%
02:00 +7°C° 0 mm 0 m/s 754 mmHg 77%
03:00 +8°C° 0 mm 0 m/s 755 mmHg 73%
04:00 +9°C° 0 mm 0 m/s 755 mmHg 69%
05:00 +10°C° 0 mm 0 m/s 755 mmHg 65%
06:00 +12°C° 0 mm 1 m/s 755 mmHg 60%
07:00 +13°C° 0 mm 2 m/s 755 mmHg 56%
08:00 +15°C° 0 mm 2 m/s 756 mmHg 51%
09:00 +17°C° 0 mm 3 m/s 755 mmHg 48%
10:00 +19°C° 0 mm 3 m/s 755 mmHg 45%
11:00 +22°C° 0 mm 4 m/s 755 mmHg 41%
12:00 +23°C° 0 mm 4 m/s 755 mmHg 39%
13:00 +25°C° 0 mm 4 m/s 755 mmHg 37%
14:00 +26°C° 0 mm 5 m/s 755 mmHg 35%
15:00 +26°C° 0 mm 4 m/s 754 mmHg 35%
16:00 +26°C° 0 mm 4 m/s 754 mmHg 35%
17:00 +26°C° 0 mm 4 m/s 754 mmHg 35%
18:00 +23°C° 0 mm 4 m/s 754 mmHg 40%
19:00 +22°C° 0 mm 4 m/s 754 mmHg 45%
20:00 +20°C° 0 mm 4 m/s 754 mmHg 50%
21:00 +18°C° 0 mm 3 m/s 754 mmHg 56%
22:00 +17°C° 0 mm 3 m/s 755 mmHg 62%
23:00 +14°C° 0 mm 3 m/s 755 mmHg 68%

18 Junho, Sexta-feira

Tempo Temperatura Precipitação Vento Pressão Humidade
00:00 +13°C° 0 mm 3 m/s 755 mmHg 71%
01:00 +12°C° 0 mm 3 m/s 755 mmHg 74%
02:00 +11°C° 0 mm 3 m/s 754 mmHg 77%
03:00 +12°C° 0 mm 3 m/s 754 mmHg 78%
04:00 +12°C° 0 mm 3 m/s 754 mmHg 79%
05:00 +13°C° 0 mm 3 m/s 754 mmHg 80%
06:00 +15°C° 0 mm 4 m/s 754 mmHg 71%
07:00 +18°C° 0 mm 4 m/s 754 mmHg 63%
08:00 +20°C° 0 mm 5 m/s 754 mmHg 54%
09:00 +22°C° 0 mm 5 m/s 753 mmHg 49%
10:00 +23°C° 0 mm 5 m/s 753 mmHg 44%
11:00 +26°C° 0 mm 5 m/s 753 mmHg 39%
12:00 +26°C° 0 mm 5 m/s 753 mmHg 38%
13:00 +27°C° 0 mm 5 m/s 753 mmHg 36%
14:00 +28°C° 0 mm 5 m/s 752 mmHg 35%
15:00 +28°C° 0 mm 5 m/s 752 mmHg 36%
16:00 +28°C° 0 mm 5 m/s 752 mmHg 37%
17:00 +28°C° 0 mm 5 m/s 751 mmHg 39%
18:00 +26°C° 0 mm 5 m/s 751 mmHg 45%
19:00 +25°C° 0 mm 5 m/s 751 mmHg 50%
20:00 +23°C° 0 mm 5 m/s 751 mmHg 56%
21:00 +21°C° 0 mm 5 m/s 751 mmHg 59%
22:00 +20°C° 0 mm 4 m/s 752 mmHg 61%
23:00 +19°C° 0 mm 4 m/s 752 mmHg 64%

19 Junho, Sábado

Tempo Temperatura Precipitação Vento Pressão Humidade
00:00 +18°C° 0 mm 4 m/s 752 mmHg 71%
01:00 +18°C° 0 mm 4 m/s 752 mmHg 78%
02:00 +17°C° 0 mm 3 m/s 753 mmHg 84%
03:00 +17°C° 0 mm 3 m/s 753 mmHg 84%
04:00 +16°C° 0 mm 3 m/s 754 mmHg 83%
05:00 +16°C° 0 mm 2 m/s 755 mmHg 82%
06:00 +17°C° 0 mm 2 m/s 755 mmHg 74%
07:00 +18°C° 0 mm 2 m/s 755 mmHg 65%
08:00 +19°C° 0 mm 2 m/s 756 mmHg 56%
09:00 +20°C° 0 mm 1 m/s 756 mmHg 53%
10:00 +21°C° 0 mm 1 m/s 756 mmHg 51%
11:00 +22°C° 0 mm 1 m/s 756 mmHg 48%
12:00 +22°C° 0 mm 1 m/s 756 mmHg 49%
13:00 +23°C° 0 mm 1 m/s 756 mmHg 50%
14:00 +23°C° 0 mm 1 m/s 755 mmHg 51%
15:00 +23°C° 0.1 mm 1 m/s 755 mmHg 54%
16:00 +24°C° 0.1 mm 2 m/s 755 mmHg 57%
17:00 +24°C° 0.1 mm 2 m/s 754 mmHg 60%
18:00 +23°C° 0.2 mm 2 m/s 754 mmHg 68%
19:00 +21°C° 0.2 mm 2 m/s 753 mmHg 75%
20:00 +20°C° 0.2 mm 3 m/s 753 mmHg 82%
21:00 +19°C° 0.2 mm 2 m/s 753 mmHg 87%
22:00 +19°C° 0.2 mm 2 m/s 753 mmHg 92%
23:00 +18°C° 0.2 mm 2 m/s 752 mmHg 96%
Mostrar mais

Necessitamos do seu Consentimento

A Meteoprog e os seus Fornecedores de Serviços podem armazenar e aceder a dados pessoais como cookies, identificadores do dispositivo ou outras tecnologias semelhantes existentes no seu dispositivo e processar estes dados para personalizar conteúdos e anúncios, assim como funcionalidades nas redes sociais e análise de tráfego.

  • Armazenar e/ou aceder a informações no seu dispositivo

    Os cookies, identificadores do dispositivo ou outras informações podem ser armazenados ou acedidos no seu dispositivo, para os fins acima indicados.

  • Anúncios e conteúdos personalizados, medição de anúncios e conteúdos, dados sobre o público-alvo e desenvolvimento de produtos

    Os anúncios e os conteúdos podem ser personalizados com base num perfil. Podem ser adicionados dados adicionais para uma maior personalização dos anúncios e dos conteúdos. A eficácia dos anúncios e dos conteúdos pode ser medida. Podem ser obtidas informações sobre o público que visualizou os anúncios e os conteúdos. Estes dados podem ser usados para desenvolver ou melhorar sistemas, softwares ou a experiência do utilizador.

Ao clicar em "Eu concordo”, permitirá o uso de cookies, identificadores do dispositivo e web beacons mencionados ou outras tecnologias semelhantes. As configurações do navegador do seu dispositivo podem ser alteradas.

Para certos fins, podem ser invocados interesses legítimos ao invés de consentimento. Pode ler mais informação sobre este assunto na nossa Política de Privacidade e Cookies.